Dewpoint
58 58 58 58 59 59 57 54 54 52 53 54 53 50 50 51 53 54 50 50 50 48 45 43 41 43 41 40 40 44 44 46 46 46 44 44 44 44 41 40 41 42 45 46 44 46 44 46 46 48 48 46 46 47 45 43 45 46 46 43 43 46 46 46 43 43 44 43 39 30 35 35 29 30 30 36 38 35 32 34 40 44 41 38 38
58 58 59 59 59 59 57 55 52 53 55 56 54 51 49 50 52 50 52 50 47 42 43 45 44 43 40 39 40 41 43 43 45 46 44 46 47 47 45 41 41 41 45 43 46 45 47 43 42 45 44 43 45 38 39 41 40 40 41 44 42 44 46 42 42 42 43 43 38 34 36 38 29 33 39 41 39 38 28 31 30 29 28 34 34
56 57 58 58 59 58 57 53 51 52 57 56 55 53 53 52 53 52 50 50 46 43 44 46 45 44 44 44 41 41 44 46 48 46 46 45 44 47 46 45 44 44 43 42 39 43 45 44 43 45 46 46 45 45 43 41 38 36 41 40 43 43 40 41 42 43 42 40 41 36 37 39 41 31 30 35 37 34 32 30 30 29 31 35 34
56 56 57 58 59 58 57 55 53 52 52 53 54 54 55 56 53 52 48 47 46 47 46 44 45 46 45 45 44 43 44 47 49 46 45 44 45 46 46 47 45 44 43 39 37 41 44 45 45 45 45 46 44 43 41 43 43 41 43 44 44 42 46 45 44 44 42 41 41 32 35 40 38 34 32 32 36 36 35 34 33 33 34 35 38
56 55 55 57 58 58 57 56 56 55 55 53 54 53 53 52 51 47 49 47 46 49 45 44 44 45 48 46 45 45 45 45 46 47 50 51 49 49 48 47 49 48 47 45 47 44 46 47 46 45 46 47 47 45 43 44 41 43 43 41 40 44 46 45 44 42 43 41 42 42 41 38 34 38 36 35 35 33 34 35 34 35 37 38 39
55 56 55 57 58 58 58 58 58 57 56 54 54 53 53 52 50 50 48 49 47 47 48 45 41 41 42 42 43 44 44 45 45 46 47 48 50 50 50 50 50 49 49 49 46 48 49 48 49 47 47 49 49 48 48 46 43 45 44 42 39 43 46 46 47 46 44 42 44 44 44 41 41 40 39 37 38 38 38 38 38 39 40 41 40
55 55 55 56 56 58 58 59 59 58 56 55 55 55 53 53 50 49 48 49 50 49 47 45 45 42 40 41 41 43 43 44 45 46 46 47 49 50 52 51 51 51 50 49 49 50 50 49 51 50 49 49 50 49 50 49 49 48 47 47 42 43 45 46 44 44 45 45 43 45 44 44 45 42 39 36 37 36 37 37 41 39 42 42 42
54 55 55 55 55 56 56 58 58 58 57 56 56 56 52 51 50 50 50 50 51 49 49 47 47 44 44 42 42 44 45 44 46 47 48 50 53 54 54 54 53 51 53 51 51 50 51 51 51 50 50 49 50 50 50 50 49 49 48 47 47 45 45 45 45 44 44 45 43 44 43 42 42 43 40 39 40 39 38 42 42 42 42 42 42
54 55 56 56 57 57 57 57 58 57 56 56 56 55 55 54 52 51 51 52 53 50 51 49 48 46 44 45 44 46 48 49 49 50 50 53 55 55 56 54 55 54 55 56 56 55 55 56 54 50 59 55 48 50 49 51 55 51 50 49 48 47 46 45 45 43 44 45 43 44 41 40 42 43 42 42 41 42 43 44 43 42 41 41 40
54 54 54 55 56 56 56 57 57 57 56 56 55 56 56 56 55 54 52 52 52 52 51 52 49 48 47 46 47 50 52 53 53 49 50 52 54 54 56 56 56 56 56 55 55 55 53 55 56 55 51 50 47 44 43 43 44 50 52 51 50 48 46 45 45 44 44 42 40 39 41 41 40 43 43 44 44 44 43 43 41 40 40 39 40
51 51 53 54 55 55 56 56 56 56 56 56 55 55 55 57 56 54 51 52 53 53 52 52 52 51 49 50 51 55 55 57 45 45 46 49 54 56 55 54 55 54 52 55 54 54 52 52 56 56 54 51 53 44 43 42 41 40 40 42 44 52 48 48 45 45 43 43 41 40 40 40 41 43 43 41 44 42 42 42 41 41 40 38 35
47 48 49 51 52 52 53 54 55 55 56 55 55 55 55 56 56 56 56 54 54 53 54 53 53 53 52 52 55 56 56 49 43 43 45 46 50 55 56 56 55 55 55 52 51 51 50 51 55 57 55 61 55 52 46 42 40 39 38 37 36 36 37 47 47 46 46 44 43 44 42 40 40 43 42 43 44 43 42 41 41 40 40 39 38
39 42 42 43 45 49 49 50 50 53 53 53 55 56 56 56 56 56 57 56 55 54 54 54 53 54 54 53 53 55 57 43 42 43 43 44 47 51 52 54 54 53 53 51 49 49 52 54 53 56 51 53 52 53 53 48 40 38 39 38 38 35 33 34 36 45 43 45 44 43 43 43 43 44 47 46 45 43 40 38 40 40 40 39 38
40 40 40 41 41 43 45 48 50 51 51 53 55 54 55 55 57 57 57 57 57 56 55 54 54 54 54 54 54 54 55 45 42 43 42 43 44 47 51 52 53 52 51 50 53 53 53 51 49 49 53 53 53 53 49 52 48 45 44 44 43 42 35 34 34 34 33 40 41 43 47 46 44 47 47 45 42 39 39 39 42 40 40 39 40
38 39 40 39 41 41 41 42 46 49 52 51 53 53 53 56 56 56 56 56 57 57 57 56 56 55 54 54 54 53 54 43 42 42 41 42 43 44 52 52 51 51 50 53 53 52 52 52 50 50 53 51 50 47 54 53 51 49 48 46 45 42 43 44 45 44 42 41 41 43 46 46 46 45 44 43 43 43 43 42 42 41 41 41 40
36 38 38 38 38 38 40 40 42 43 45 48 50 50 51 53 54 56 56 56 56 57 57 57 55 55 55 54 54 53 57 42 41 41 41 42 41 51 53 53 51 50 52 51 51 50 50 51 50 50 50 46 39 35 39 52 50 48 47 45 45 44 40 37 36 38 44 46 45 45 44 43 40 44 41 39 38 39 38 37 37 37 34 33 33
33 36 37 38 38 38 39 39 40 42 43 44 44 47 49 52 54 55 55 56 56 56 56 56 57 57 55 53 52 54 61 45 42 42 41 41 44 52 51 50 51 51 50 49 47 50 52 51 49 49 46 43 39 35 35 38 48 47 46 47 46 44 41 38 36 35 35 34 34 34 34 34 34 34 33 33 37 36 33 31 32 34 32 30 31
33 32 34 34 36 36 37 37 39 41 41 41 43 46 48 49 49 54 54 54 54 55 56 56 57 56 54 55 53 57 56 50 42 42 42 41 46 50 49 49 48 47 50 47 48 47 46 44 49 47 46 42 36 36 36 46 47 47 47 45 44 42 42 40 39 40 35 35 34 34 33 32 32 33 34 34 33 34 34 31 33 32 31 31 29
33 31 32 31 32 33 35 38 39 40 41 42 44 45 46 47 47 49 54 54 53 53 54 56 55 55 54 55 53 57 56 50 40 40 41 41 45 50 48 46 46 46 46 44 44 44 44 41 40 44 44 43 35 35 35 41 47 46 46 45 43 43 44 43 43 41 41 41 39 42 39 37 39 37 38 35 35 36 37 37 36 34 33 33 34
31 31 31 32 32 32 34 35 38 39 40 41 41 42 44 45 47 48 51 52 52 52 53 53 53 54 55 56 58 55 57 54 46 40 40 41 43 50 47 44 44 44 43 42 42 43 42 40 38 35 35 35 34 34 35 36 50 46 45 43 42 39 44 44 43 42 43 42 42 42 42 42 41 42 43 38 37 37 39 40 38 37 36 33 33
34 34 33 32 30 29 30 34 36 38 39 40 41 41 41 43 46 46 47 50 52 51 52 53 53 53 54 56 56 56 55 55 49 40 40 41 42 43 47 45 45 42 40 40 40 41 40 38 37 35 34 34 34 34 35 35 37 45 44 42 40 44 39 42 42 32 38 39 40 40 40 38 39 38 37 37 39 40 40 40 40 37 33 32 29
33 32 32 31 31 32 32 33 35 37 38 39 40 41 41 41 42 44 46 46 48 52 54 53 52 52 53 54 56 56 54 52 54 41 39 40 40 40 48 51 52 47 40 39 38 38 38 37 35 35 34 34 34 34 34 34 34 36 37 31 31 31 38 36 39 39 39 38 35 33 34 32 31 33 32 32 31 31 33 34 34 34 34 34 31
33 33 33 33 34 34 34 35 35 34 35 38 38 39 39 40 41 42 43 45 45 47 52 53 53 53 53 52 53 54 54 49 44 46 40 40 42 41 38 42 42 52 45 39 39 38 39 38 36 35 34 34 34 34 34 33 33 34 32 31 31 31 34 35 35 36 33 34 35 34 32 32 33 31 31 31 33 36 36 36 37 35 35 34 34
34 34 35 35 35 33 32 33 34 34 34 34 35 37 37 39 39 40 39 41 42 44 47 51 52 51 50 50 52 53 54 51 43 43 45 41 40 40 38 38 38 46 43 41 40 40 38 36 35 34 34 34 33 33 33 33 32 32 32 31 32 32 36 34 33 36 34 32 32 32 33 31 31 30 31 34 34 36 35 35 35 34 34 34 33
34 34 34 34 35 34 35 34 34 33 33 32 32 32 34 35 34 37 39 39 40 41 44 48 50 49 48 49 49 50 51 52 50 44 43 41 38 38 37 35 35 37 50 40 42 42 36 34 34 33 33 32 32 32 32 33 32 32 32 32 34 36 37 33 33 34 32 31 31 32 31 30 30 32 35 36 36 35 35 32 33 33 33 33 34
32 33 32 33 34 32 34 34 34 34 34 31 32 31 32 32 32 33 35 37 37 40 40 42 44 45 48 48 47 48 48 48 48 48 43 41 39 37 36 36 36 35 36 35 33 33 33 33 33 32 32 32 36 34 32 32 32 32 32 34 38 35 32 31 33 32 31 29 29 29 29 30 31 34 35 34 34 33 29 30 31 31 32 32 31
32 32 33 32 33 32 33 33 33 34 35 34 33 32 29 28 31 29 29 34 37 38 40 40 42 41 46 48 47 46 47 47 47 46 46 47 45 40 38 37 35 34 34 33 33 32 33 33 32 32 33 33 35 33 33 33 34 34 33 35 35 32 31 32 30 31 29 29 30 29 30 31 33 33 32 31 30 30 31 31 31 30 31 31 30
33 33 32 33 32 31 31 31 31 32 33 33 31 29 30 31 29 29 27 29 33 36 37 39 41 46 45 45 47 46 45 46 45 45 44 44 42 41 43 40 39 37 35 34 33 32 33 33 35 37 36 35 32 31 32 35 35 33 33 32 31 30 29 30 30 31 33 31 29 30 30 33 31 30 30 30 29 29 31 31 31 31 31 31 30
34 34 34 34 34 33 33 32 31 30 32 34 34 33 32 31 30 31 33 31 34 35 42 48 49 50 49 48 51 47 44 44 45 41 43 39 39 40 40 40 39 38 36 34 35 35 33 34 33 33 31 30 30 33 34 33 31 32 34 34 33 34 33 29 29 28 29 30 29 30 31 31 31 31 30 29 30 29 31 31 32 31 31 31 30
34 34 34 34 34 34 34 32 32 31 31 32 33 34 32 32 33 32 34 37 35 37 39 46 48 48 44 40 41 47 47 45 38 37 36 36 36 36 37 37 36 37 35 34 35 34 33 33 33 30 32 31 31 31 32 31 31 31 30 26 27 29 27 27 29 28 26 27 28 29 29 30 29 29 30 31 30 31 31 31 31 31 31 30 30
34 34 34 34 33 34 34 34 33 32 32 32 33 32 33 33 32 33 33 37 37 36 35 35 36 37 50 42 43 35 34 34 36 36 36 35 35 35 35 35 34 34 34 34 33 31 31 31 31 31 31 30 30 29 29 29 27 26 28 29 28 28 26 27 25 25 24 26 28 29 29 28 29 28 30 29 30 29 30 31 30 31 31 31 30
35 34 35 34 35 34 34 34 35 34 33 32 31 32 32 31 32 35 34 34 35 35 36 36 36 37 41 43 41 42 36 35 34 34 34 34 34 34 34 34 34 34 33 33 31 30 30 30 30 31 30 30 28 28 29 28 28 27 29 26 25 25 25 24 26 26 28 28 27 27 27 28 28 29 29 29 29 29 29 30 30 30 30 30 30
35 35 35 35 35 34 34 34 34 35 34 33 33 32 31 31 31 31 37 34 34 35 35 35 36 36 38 40 39 38 39 36 35 35 34 34 34 34 34 33 33 33 33 32 30 30 31 31 31 31 31 28 29 29 29 31 28 28 29 27 24 26 27 28 27 28 27 27 28 27 27 27 27 27 28 29 29 29 30 30 29 30 30 30 30
36 35 35 35 35 35 35 35 34 34 34 34 33 32 31 32 31 32 30 34 38 36 35 35 35 35 36 38 38 37 35 34 34 34 34 33 33 33 33 34 33 32 32 32 30 28 30 31 31 30 29 30 29 29 29 29 28 28 27 27 28 28 26 25 24 25 26 27 28 27 27 27 27 28 28 28 29 29 28 29 30 29 30 30 30
36 35 33 34 35 35 35 35 35 35 34 34 33 33 32 32 32 31 31 31 33 34 36 37 35 35 36 36 37 35 34 34 34 34 34 33 33 33 33 35 32 31 35 34 36 33 32 31 31 31 31 30 29 29 29 31 28 28 27 28 27 24 22 23 23 27 30 29 29 27 27 27 28 28 27 27 27 28 28 28 29 29 30 30 30
37 37 37 37 37 36 35 35 35 35 35 34 34 33 33 32 31 32 32 32 33 34 42 37 36 35 36 37 36 35 34 34 34 34 33 33 33 33 32 31 30 32 32 39 36 34 33 31 31 33 31 30 31 29 30 30 30 30 28 27 23 22 21 23 25 27 29 30 28 27 28 27 27 27 27 27 29 28 28 29 29 29 30 30 30
37 37 38 40 41 40 38 37 36 35 34 34 34 34 33 32 31 32 33 34 35 35 44 37 37 38 37 36 35 34 34 34 34 34 34 34 33 34 37 35 34 38 32 34 32 30 30 32 31 32 32 29 29 30 31 30 29 29 27 26 25 23 22 22 25 27 27 27 27 29 28 27 27 28 26 26 27 27 28 29 29 29 29 30 30
37 38 38 37 39 39 39 38 37 34 35 35 35 34 33 33 31 31 32 34 35 36 41 43 35 35 35 35 36 35 34 33 33 33 33 33 33 35 36 35 39 37 33 32 30 30 30 31 32 31 30 30 31 31 31 30 28 27 27 26 23 20 23 22 26 29 29 29 26 26 26 26 27 27 27 26 27 27 28 29 28 28 29 30 29
37 35 34 34 35 38 38 38 36 36 36 35 35 34 33 33 32 32 34 35 33 38 39 41 36 34 34 35 35 35 34 33 33 32 32 33 34 35 36 37 36 36 33 31 31 30 31 31 31 32 31 30 31 29 29 28 28 26 26 23 21 20 22 22 25 26 26 26 26 26 26 26 26 27 27 27 28 28 29 29 30 30 30 30 29
36 36 35 34 36 36 37 36 37 37 35 36 35 35 35 33 32 32 34 34 34 33 34 39 39 35 34 35 35 35 34 33 33 33 32 32 32 33 37 37 36 36 32 30 32 32 31 30 32 30 30 30 29 29 28 28 28 25 24 20 17 19 21 24 25 25 26 26 27 26 26 27 27 27 28 28 28 29 29 30 30 30 30 30 30
36 36 34 34 35 36 36 36 36 36 36 36 36 35 35 34 32 31 35 36 34 33 33 39 37 34 33 33 33 32 33 31 31 31 33 32 32 34 34 33 32 33 31 31 31 32 30 31 29 29 30 29 29 29 27 26 25 23 20 19 18 20 21 25 27 27 27 28 27 28 28 28 28 27 28 28 30 29 29 29 29 29 30 30 30
36 36 36 35 36 36 36 35 36 35 35 35 36 36 35 34 33 32 37 34 36 34 32 35 34 33 32 32 32 32 34 30 29 31 34 36 38 36 33 32 31 31 31 31 31 31 30 30 28 28 27 27 27 28 28 25 24 20 19 18 19 21 22 25 27 28 28 27 27 28 28 28 28 27 27 30 28 28 29 29 29 30 29 29 29
36 35 35 36 36 36 35 36 36 36 36 36 35 34 35 36 35 34 33 35 37 35 35 32 32 32 32 33 34 33 33 33 32 33 35 37 37 34 34 32 32 33 31 30 30 29 29 28 27 27 27 27 28 25 23 22 20 20 19 19 21 21 23 25 26 26 26 27 27 29 29 28 27 27 26 27 28 29 29 30 30 29 30 30 30
35 34 35 35 35 35 35 36 36 35 35 34 34 35 34 35 36 40 40 35 33 33 33 32 31 31 32 34 34 34 34 34 34 36 38 34 34 33 32 32 31 30 30 29 29 29 29 26 26 27 29 29 27 27 24 23 21 21 21 20 21 22 23 23 24 26 26 27 28 28 28 28 28 27 27 28 29 29 29 30 30 30 30 30 30
35 34 34 34 35 35 35 34 35 35 34 34 35 34 32 34 38 40 35 32 32 33 32 31 31 32 33 34 34 35 36 37 33 33 34 35 33 32 31 31 31 30 29 29 29 30 28 26 27 28 28 27 26 25 26 24 25 25 23 23 23 22 23 25 27 27 28 28 28 28 28 28 28 27 27 28 29 29 28 29 29 30 30 30 30
33 34 34 34 34 33 33 35 34 33 33 33 33 33 32 34 35 34 35 32 31 31 33 32 32 33 33 34 34 34 37 37 36 35 33 34 34 32 31 30 30 30 29 28 29 29 26 26 27 28 28 26 26 24 23 25 25 25 26 27 26 25 26 26 27 28 28 28 28 28 28 28 28 28 28 28 28 28 28 29 29 29 30 30 30
34 33 33 33 33 33 33 33 33 34 35 36 36 37 39 40 36 36 32 32 31 31 32 34 34 32 33 35 35 36 35 34 34 34 35 36 33 32 30 30 29 29 28 28 29 27 28 28 28 30 28 26 26 27 25 24 26 24 25 26 27 27 27 26 27 28 28 28 29 29 29 29 29 28 29 29 29 28 28 27 28 30 30 30 30
33 32 33 33 33 33 33 34 33 32 32 32 32 32 32 33 33 32 31 32 31 31 31 31 31 33 34 34 35 35 34 35 34 32 33 32 32 30 30 30 28 28 28 27 27 27 28 29 30 29 28 26 26 25 26 25 25 26 26 28 27 27 27 27 28 29 28 28 29 29 29 29 29 29 29 29 29 28 28 28 28 29 30 30 30
33 33 32 32 32 32 32 32 32 32 32 33 32 33 33 32 32 33 33 33 31 32 32 33 33 33 34 35 37 36 35 33 33 32 31 31 31 30 29 29 29 27 27 28 29 29 30 30 30 29 28 27 26 26 27 27 27 27 28 27 27 27 27 27 27 27 28 28 28 29 29 29 29 30 30 29 28 28 28 29 29 29 29 30 30
33 34 33 33 32 32 31 32 32 32 32 32 33 33 34 34 33 32 32 32 32 32 32 32 33 33 34 35 36 35 33 33 32 31 31 30 30 30 29 30 29 28 27 28 29 30 30 31 30 30 29 29 28 28 27 28 28 28 28 28 27 27 26 26 27 27 28 28 28 28 29 29 30 30 28 29 29 29 28 28 28 28 29 30 30
32 33 33 33 33 33 32 32 31 31 32 31 31 32 32 32 33 33 32 32 31 32 32 32 33 33 34 35 35 35 34 33 33 32 32 31 32 31 30 29 29 29 29 29 29 29 30 30 29 29 29 28 27 27 27 28 28 27 27 27 27 26 26 26 27 27 27 28 28 28 29 29 30 29 29 29 28 27 28 28 27 28 28 28 29